FW1585 Weather Reports


time (UTC)temp
C
wind
direction
speed
KPH
gust
KPH
rain 1hr
cm
rain 24hr
cm
rain mn
cm
humidity
%
barometer
mb
20260906204510 25 108 4.8 8.0 0.00 0.00 0.00 77 1006.8
20260906203012 25 169 3.2 9.7 0.00 0.00 0.00 79 1006.7
20260906201508 23 209 6.4 14.5 0.00 0.00 0.00 82 1006.3
20260906200008 23 227 9.7 19.3 0.00 0.00 0.00 83 1006.2
20260906194507 23 248 12.9 17.7 0.00 0.00 0.00 83 1006.6
20260906193007 23 240 12.9 20.9 0.00 0.00 0.00 82 1007.1
20260906191506 23 249 9.7 17.7 0.00 0.00 0.00 79 1007.5
20260906190006 23 219 14.5 19.3 0.00 0.00 0.00 76 1007.7
20260906184508 23 217 14.5 25.7 0.00 0.00 0.00 75 1007.7
20260906183005 24 225 14.5 24.1 0.00 0.00 0.00 75 1007.2
20260906181602 24 219 20.9 29.0 0.00 0.00 0.00 75 1007.5
20260906180106 25 231 19.3 35.4 0.00 0.00 0.00 74 1007.6
20260906174603 25 232 22.5 40.2 0.00 0.00 0.00 77 1007.7
20260906173051 25 209 19.3 32.2 0.00 0.00 0.00 82 1007.5
20260906171549 25 206 17.7 29.0 0.00 0.00 0.00 87 1007.6
20260906170052 25 148 20.9 32.2 0.00 0.00 0.00 88 1007.9
20260906164550 25 165 14.5 32.2 0.00 0.00 0.00 89 1008.1
20260906163046 25 163 16.1 27.4 0.00 0.00 0.00 89 1008.2
20260906161547 25 175 14.5 25.7 0.00 0.00 0.00 89 1007.9
20260906160043 25 149 11.3 19.3 0.00 0.00 0.00 90 1007.6
20260906154547 25 144 9.7 19.3 0.00 0.00 0.00 89 1007.3
20260906153047 25 124 14.5 25.7 0.00 0.00 0.00 89 1007.3
20260906151540 25 133 12.9 20.9 0.00 0.00 0.00 89 1007.0
20260906150053 25 132 9.7 14.5 0.00 0.00 0.00 90 1007.0
20260906144537 24 115 9.7 16.1 0.00 0.00 0.00 92 1007.2
20260906143033 23 114 9.7 16.1 0.00 0.00 0.00 93 1007.2
20260906141529 22 115 8.0 12.9 0.00 0.00 0.00 93 1007.2
20260906140034 22 76 8.0 12.9 0.00 0.00 0.00 94 1007.2
20260906134522 21 35 4.8 9.7 0.00 0.00 0.00 94 1007.7
20260906133024 21 327 4.8 8.0 0.00 0.00 0.00 94 1007.9
20260906131517 21 274 1.6 3.2 0.00 0.00 0.00 94 1007.6
20260906130021 21 83 3.2 6.4 0.00 0.00 0.00 94 1007.2
20260906124513 20 227 0.0 3.2 0.00 0.00 0.00 94 1007.0
20260906123022 20 227 3.2 6.4 0.00 0.00 0.00 94 1007.0
20260906121510 20 87 4.8 6.4 0.00 0.00 0.00 94 1006.6
20260906120008 20 86 0.0 6.4 0.00 0.00 0.00 94 1006.7
20260906114510 20 111 3.2 6.4 0.00 0.00 0.00 94 1006.6
20260906113013 20 87 4.8 6.4 0.00 0.00 0.00 94 1006.4
20260906111507 20 85 4.8 8.0 0.00 0.00 0.00 94 1006.5
20260906110005 20 79 6.4 11.3 0.00 0.00 0.00 94 1006.4
20260906104510 20 69 4.8 8.0 0.00 0.00 0.00 93 1006.7
20260906103016 20 51 3.2 8.0 0.00 0.00 0.00 93 1006.8
20260906101505 20 34 3.2 4.8 0.00 0.00 0.00 93 1006.9
20260906100009 20 34 3.2 6.4 0.00 0.00 0.00 93 1007.3
20260906094502 20 109 0.0 1.6 0.00 0.00 0.00 93 1007.3
20260906093003 20 109 0.0 3.2 0.00 0.00 0.00 93 1007.0
20260906091601 20 109 0.0 3.2 0.00 0.00 0.00 93 1007.1
20260906090059 20 108 1.6 4.8 0.00 0.00 0.00 93 1006.9
20260906084601 20 105 3.2 4.8 0.00 0.00 0.00 93 1006.8
20260906083059 20 88 3.2 4.8 0.00 0.00 0.00 93 1006.7
20260906081558 20 88 3.2 6.4 0.00 0.00 0.00 93 1006.8
20260906080057 20 80 4.8 8.0 0.00 0.00 0.00 93 1006.5
20260906074554 20 84 4.8 9.7 0.00 0.00 0.00 93 1006.5
20260906073054 20 107 4.8 11.3 0.00 0.00 0.00 93 1006.5
20260906071552 20 97 4.8 11.3 0.00 0.00 0.00 93 1006.4
20260906070051 20 69 6.4 8.0 0.00 0.00 0.00 92 1006.5
20260906064550 20 80 6.4 8.0 0.00 0.00 0.00 92 1006.6
20260906063049 20 82 6.4 9.7 0.00 0.00 0.00 92 1006.5
20260906061552 20 96 3.2 6.4 0.00 0.00 0.00 92 1006.3
20260906060047 21 81 4.8 6.4 0.00 0.00 0.00 91 1006.3
20260906054601 21 81 3.2 8.0 0.00 0.00 0.00 91 1006.3
20260906053042 21 79 4.8 6.4 0.00 0.00 0.00 90 1005.9
20260906051539 21 103 3.2 6.4 0.00 0.00 0.00 89 1006.2
20260906050039 22 97 4.8 9.7 0.00 0.00 0.00 89 1006.3
20260906044538 22 133 8.0 14.5 0.00 0.00 0.00 88 1006.5
20260906043037 22 107 12.9 22.5 0.00 0.00 0.00 88 1006.2
20260906041536 22 84 12.9 19.3 0.00 0.00 0.00 88 1005.6
20260906040045 22 76 14.5 19.3 0.00 0.00 0.00 88 1005.5
20260906034547 22 82 14.5 19.3 0.00 0.00 0.00 87 1005.8
20260906033035 23 72 8.0 14.5 0.00 0.00 0.00 86 1006.2
20260906031600 23 80 9.7 14.5 0.00 0.00 0.00 85 1006.1
20260906030035 23 97 4.8 11.3 0.00 0.00 0.00 84 1006.4
20260906024553 23 87 6.4 11.3 0.00 0.00 0.00 84 1006.2
20260906023041 24 59 6.4 12.9 0.00 0.00 0.00 83 1006.3
20260906021533 24 98 8.0 12.9 0.00 0.00 0.00 83 1005.5
20260906020031 24 120 6.4 11.3 0.00 0.00 0.00 84 1005.5
20260906014532 25 129 1.6 4.8 0.00 0.00 0.00 82 1005.6
20260906013033 25 31 0.0 4.8 0.00 0.00 0.00 81 1005.8
20260906011533 25 48 3.2 6.4 0.00 0.00 0.00 82 1005.8
20260906010044 24 106 9.7 14.5 0.00 0.00 0.00 84 1005.6
20260906004530 25 103 3.2 4.8 0.00 0.00 0.00 82 1006.4
20260906003026 25 9 1.6 3.2 0.00 0.00 0.00 78 1006.8
20260906001529 26 101 0.0 1.6 0.00 0.00 0.00 76 1006.7
20260906000019 26 101 0.0 4.8 0.00 0.00 0.00 74 1006.5
20260905234512 27 104 3.2 11.3 0.00 0.00 0.00 72 1006.1
20260905233009 27 111 9.7 14.5 0.00 0.00 0.00 71 1005.7
20260905231507 28 94 9.7 16.1 0.00 0.00 0.00 69 1005.5
20260905230013 28 98 12.9 22.5 0.00 0.00 0.00 66 1005.2
20260905224515 30 109 16.1 32.2 0.00 0.00 0.00 61 1004.2
20260905223100 31 98 17.7 25.7 0.00 0.00 0.00 50 1004.0
20260905221556 31 113 14.5 22.5 0.00 0.00 0.00 51 1004.4
20260905220051 31 121 14.5 24.1 0.00 0.00 0.00 51 1004.6
20260905214551 31 114 17.7 22.5 0.00 0.00 0.00 51 1004.8
20260905213046 31 89 17.7 25.7 0.00 0.00 0.00 51 1005.0
20260905211558 31 88 14.5 20.9 0.00 0.00 0.00 51 1005.0
20260905210046 31 118 14.5 27.4 0.00 0.00 0.00 51 1005.1